STARLINK-5689, 55474

Orbit data source: Space-Track

STARLINK-5689, 55474 is a payload satellite owned by SpaceX/Seattle (US) in LEO that was launched on Thu, 02 Feb 2023 UTC via an FALCON 9 launch vehicle from the Air Force Eastern Test Range (AFETR). Payload-class satellites include a variety of spacecraft equipped with specific instruments for various scientific and technological missions. These include communications satellites like Starlink; space stations such as the ISS; scientific satellites like the Hubble; Earth observation satellites from companies like Planet Labs, Umbra, and HawkEye 360; GPS; miniature CubeSats for education and research; and military/defense satellites.

Loading next visibility...
Identifier
55474, 2023-015AB
Orbit
LEO
Country
Flag of USUS
Related business
Manufacturer
SpaceX/Seattle
Mission
Operational Commercial Communications
Bus & Motor
STARLINK, Unknown motor
Mass
305 kg wet, ~290 kg dry
Launch date (UTC)
2023-02-02 (3 years ago)
Launch vehicle
FALCON 9
Launch site
Air Force Eastern Test Range (AFETR)
Object type
Payload
Rocket body
Debris
Shape & HBR
Box + 1 Pan, 10.1 m
Radar Cross Section
13.562 m², Large (>1 m²)

Expand to show TLE details & history
Last TLE update: 13 hours ago

TLE from 13 hours ago
0 STARLINK-5689
1 55474U 23015AB  25291.57439002  .00000385  00000-0  43549-4 0  9990
2 55474  43.0061  31.4122 0001151 260.6853  99.3860 15.02534580149228
Epoch: 2025-10-18T13:47Z
TLE epoch observation values (Epoch: 2025-10-18T13:47:07.297Z)
Latitude
0.00002°
Longitude
157.32837°
Altitude
558.993 km
Speed
7.584 km/s
True Right ascension
02h 05m 38s
True Declination
0° 00' 00"
Sunlit
Object was in full shadow at epoch
Visualization orbit readout
Latitude
Unknown
Longitude
Unknown
Altitude
Unknown
Speed
Unknown
Apparent Right ascension
Unknown
Apparent Declination
Unknown
Sunlit
N/A
Visualization observer readout
Local Sidereal Time
22:07:49
Azimuth
Unknown
Elevation
Unknown
Doppler factor
Unknown
Orbital elements
Apogee altitude
561.806 km
Perigee altitude
560.208 km
Semi-major axis
6,939.144 km
Eccentricity
0.00012
Inclination
43.0061°
RAAN
31.4122°
Arg. of periapsis
260.6853°
True anomaly
99.39901°
Mean anomaly
99.386°
Eccentric anomaly
99.39251°
Mean motion
3.75478 °/min
Orbital period
95.88 mins
BSTAR
0.000043549
Loading maneuver chart data...
Computing Atmospheric mass density...
Loading historical data...
Loading historical data...
Loading historical data...
Loading historical data...
Loading historical data...
Loading historical data...
Loading historical data...

Documentation

Showing up to 5 results
|